Location: *
(20.5800°N, 87.1197°W)
Time: 02:14:58
(UTC+00:00)

Daily predictions for brighter satellites

Satellite Brightness Start Highest point End
(mag) Time Altitude Azimuth Time Altitude Azimuth Time Altitude Azimuth
Cosmos 44 Rocket 4.5 00:45:44 10° SW 00:50:45 52° WNW 00:55:44 10° NNE
Fermi 3.8 00:47:48 10° WSW 00:51:53 65° SSE 00:55:57 10° E
Okean 3 Rocket 4.2 00:50:14 10° SSE 00:54:24 36° E 00:58:33 10° NNE
BREEZE-M DEB (TANK) 1.8 00:53:10 10° SW 00:55:24 86° SE 00:58:57 10° NE
Ariane Rocket 3.0 00:50:26 10° SSE 00:55:31 74° ENE 01:00:35 10° N
ADEOS Rocket 4.3 00:53:34 10° ENE 00:56:17 14° E 00:59:02 10° SE
Cosmos 1939 Rocket 3.1 00:54:06 10° SSE 00:58:04 56° ENE 01:02:06 10° N
GPS 2-05 Rocket1 4.2 00:55:28 10° W 00:58:05 32° NNW 01:00:45 10° NE
USA 229 DEB 3.7 00:53:03 10° S 00:59:21 55° ESE 01:05:47 10° NE
USA 229 3.7 00:53:10 10° S 00:59:28 55° ESE 01:05:53 10° NE
Delta 168 2.9 00:56:11 10° WNW 01:00:19 57° N 01:03:31 10° E
NOSS 3-1 (A) 4.2 00:59:22 10° SSE 01:03:19 22° ESE 01:07:26 10° ENE
Meteor 2-10 Rocket 3.9 01:05:15 10° N 01:10:58 85° W 01:16:47 10° S
Cosmos 2219 Rocket 3.8 01:09:51 11° ESE 01:11:06 12° E 01:13:17 10° ENE
CZ-3A R/B 2.1 01:10:16 10° W 01:12:37 37° SSW 01:15:06 14° SE
GPS 2-18 Rocket1 3.1 01:09:49 10° W 01:13:50 90° SSE 01:17:25 12° E
ERBS 2.5 01:11:20 10° NW 01:14:37 66° WSW 01:17:46 11° SSE
Delta 7925 Rocket 3.2 01:10:34 10° WNW 01:15:12 87° NNE 01:19:16 15° ESE
H-2A R/B 3.6 01:12:14 12° ESE 01:15:19 19° ENE 01:18:58 10° NNE
Cosmos 2322 Rocket 3.3 01:12:28 10° SW 01:17:56 49° WNW 01:23:27 10° N
Geosat 4.2 01:13:50 10° SE 01:18:41 52° ENE 01:23:33 10° N
Cosmos 1302 Rocket 4.0 01:13:53 10° N 01:19:01 64° ENE 01:24:08 10° SSE
SJ-6B 3.6 01:16:57 15° SE 01:19:29 30° ENE 01:22:46 10° NNE
Meteor 2-2 Rocket 4.3 01:13:57 10° N 01:19:36 65° E 01:25:20 10° SSE
Cosmos 2151 3.2 01:16:44 10° SSE 01:20:50 47° E 01:24:57 10° NNE
Cosmos 2221 3.1 01:18:26 10° NNW 01:22:46 61° W 01:27:04 10° S
MOS 1 4.2 01:19:57 10° SSE 01:25:35 83° ENE 01:31:14 10° N
SL-16 R/B 4.1 01:22:42 10° SW 01:27:45 33° WNW 01:32:49 10° N
IRIDIUM 104 4.3 01:24:16 10° N 01:29:25 62° E 01:34:33 10° S
EP 3 3.9 01:28:16 10° SSW 01:31:09 80° ESE 01:33:27 10° NNE
Cosmos 2058 3.9 01:27:48 10° SSW 01:31:52 50° W 01:35:56 10° N
Cosmos 1892 3.0 01:28:37 12° SSE 01:31:55 42° E 01:35:33 10° NNE
IRIDIUM 114 4.2 01:33:19 10° N 01:38:33 80° E 01:43:44 10° S
Cosmos 2333 Rocket 3.1 01:37:22 22° SE 01:39:04 25° ESE 01:43:40 10° NE
USA 215 4.3 01:33:17 10° NNE 01:39:30 48° NW 01:45:42 10° WSW
CZ-3B R/B 2.1 01:35:57 10° WNW 01:39:44 25° N 01:41:19 14° NE
Cosmos 1869 3.3 01:37:30 10° N 01:41:22 56° E 01:43:15 27° SSE
FREGAT/IRIS 4.2 01:40:36 10° SSW 01:43:09 32° W 01:45:44 10° NNW
Cosmos 1464 Rocket 3.9 01:37:25 10° S 01:43:40 70° E 01:49:52 10° N
In-Cosmos 22 Rocket 4.1 01:38:24 10° S 01:43:46 86° W 01:49:17 10° N
SJ-11-01 4.2 01:40:38 14° SSE 01:44:38 86° ENE 01:49:17 10° N
Cosmos 2322 3.6 01:39:57 10° S 01:45:32 68° ESE 01:51:08 10° NNE
Cosmos 1340 Rocket 2.8 01:41:44 10° N 01:45:46 63° E 01:47:36 30° SSE
USA 186 1.5 01:45:25 33° S 01:46:28 67° W 01:49:04 10° NNW
IRIDIUM 103 4.4 01:42:25 10° N 01:47:38 81° W 01:52:50 10° S
Cosmos 2263 Rocket 2.3 01:42:58 10° N 01:48:34 59° ENE 01:51:28 28° SE
Orbus 7S 3.4 01:46:04 10° W 01:49:03 44° NNW 01:49:55 29° NE
Cosmos 1242 Rocket 4.1 01:45:47 10° SSW 01:49:09 37° W 01:52:35 10° NNW
Cosmos 1500 Rocket 4.5 01:50:08 29° E 01:50:08 29° E 01:53:51 10° NNE
Resurs 01 Rocket 2.5 01:55:13 30° ENE 01:55:21 30° ENE 01:59:14 10° NNE
SPOT 3 Rocket 3.7 01:53:07 15° S 01:57:24 76° WSW 02:02:38 10° NNW
Aurora 2 Rocket 2.4 01:56:29 10° WSW 02:00:11 82° NNW 02:02:10 34° ENE
BREEZE-M DEB (TANK) 3.8 01:59:54 10° WNW 02:01:33 20° WSW 02:01:33 20° WSW
SWIFT 2.2 01:58:14 10° W 02:02:31 83° S 02:03:20 57° E
Centaur AC-112 4.2 01:28:24 10° WNW 02:05:13 84° SSW 02:08:17 36° ESE
OE (NEXTSAT) 4.3 02:03:20 10° NW 02:06:45 78° WSW 02:06:45 78° WSW
DMSP B5D2-2 4.0 02:03:54 10° NNE 02:09:04 65° ESE 02:11:08 36° S
NOSS 3-1 (C) 4.4 02:04:48 10° SW 02:09:45 41° WNW 02:15:06 10° N
Cosmos 489 Rocket 4.4 02:07:32 10° NNW 02:13:49 85° WSW 02:16:48 33° S
SL-08 RB Rocket 3.7 02:16:34 57° ENE 02:16:34 57° ENE 02:20:48 10° N
Cosmos 1743 Rocket 3.4 02:18:42 73° S 02:19:06 89° ESE 02:23:27 10° N
Cosmos 304 Rocket 3.7 02:14:26 10° NNW 02:19:14 81° WSW 02:20:10 58° S
Cosmos 676 Rocket 3.8 02:20:09 55° SSE 02:21:14 74° ESE 02:26:26 10° NNE
Cosmos 1825 3.8 02:23:29 25° NNE 02:23:29 25° NNE 02:25:13 10° NNE
Cosmos 1140 Rocket 3.4 02:20:08 24° SSW 02:23:16 84° WNW 02:28:27 10° NNE
Iridium 4 Rocket 3.5 02:19:53 10° N 02:25:35 85° E 02:26:40 59° S
Cosmos 2360 Rocket 4.5 02:23:32 10° WSW 02:27:58 24° WNW 02:32:26 10° NNW
COSMOS 2428 2.6 02:27:11 20° SSW 02:31:12 85° WNW 02:36:56 10° NNE
Cosmos 1954 Rocket 3.8 02:31:27 75° S 02:31:56 88° ESE 02:37:10 10° NNE
Timation 1 Rocket 4.2 02:30:15 10° NNW 02:36:14 83° WSW 02:37:06 66° S
Resurs 1-3 4.1 02:36:19 53° WSW 02:36:27 53° W 02:40:44 10° NNW
Cosmos 921 Rocket 3.6 02:36:07 10° NNW 02:39:46 56° WNW 02:39:46 56° WNW
ADEOS Rocket 3.8 02:36:37 10° N 02:41:47 44° WNW 02:47:10 10° SW
CZ-2C R/B 3.1 02:39:48 10° NNE 02:43:28 47° NNE 02:43:28 47° NNE
Cosmos 1867 3.8 02:42:23 24° SW 02:45:42 66° WNW 02:51:08 10° NNE
BREEZE-M DEB (TANK) 3.8 02:35:00 10° NW 02:47:02 50° NE 02:47:19 49° NE
ARGOS 4.2 02:51:23 34° SW 02:52:41 39° W 02:57:43 10° NNW
CZ-2C R/B 3.3 02:53:34 69° NNW 02:53:34 69° NNW 02:58:08 10° NNW
H-2A R/B 3.4 02:52:53 30° SW 02:54:23 35° W 02:59:17 10° NW
Cosmos 2219 Rocket 2.9 02:51:17 24° SW 02:54:31 52° WNW 03:00:02 10° N
Cosmos 1151 Rocket 4.5 02:52:55 10° NNW 02:56:10 36° WNW 02:56:10 36° WNW
Nadezhda 4 Rocket 4.0 02:55:40 10° N 03:01:47 74° W 03:01:47 74° W
CZ-3B R/B 3.4 02:59:32 10° WSW 03:09:14 49° WSW 03:09:14 49° WSW
Cosmos 2333 Rocket 4.0 03:19:04 13° WSW 03:23:06 27° WNW 03:27:54 10° N
Cosmos 1844 Rocket 3.9 03:19:45 10° NNW 03:23:02 37° NNW 03:23:02 37° NNW
Resurs 01 Rocket 4.4 03:32:47 13° W 03:32:47 13° W 03:34:00 10° WNW
CENTAUR R/B 4.3 06:55:26 10° N 07:02:01 37° NE 07:02:01 37° NE
Atlas Centaur 2 4.4 07:16:09 29° NE 07:16:09 29° NE 07:19:30 10° ENE
Milstar 3 4.3 07:26:44 28° NE 07:26:44 28° NE 07:29:54 10° ENE
ADEOS II 4.5 07:45:19 10° NNE 07:46:53 19° NE 07:46:53 19° NE
CZ-3 Stage 3 4.3 08:09:59 67° NE 08:09:59 67° NE 08:30:34 10° ENE
ARIANE 5 R/B 4.4 08:19:32 10° N 08:21:35 25° N 08:21:35 25° N
Cosmos 2082 Rocket 3.1 08:32:01 44° NE 08:32:01 44° NE 08:35:59 10° NNE
IUS-1 SRM-2 4.5 08:32:38 45° SE 08:32:38 45° SE 08:35:46 10° E
ADEOS 4.3 08:46:09 10° NNE 08:51:08 45° E 08:51:10 45° ESE
Atlas Centaur 2 3.8 08:58:44 24° NW 09:02:37 38° N 09:08:42 10° ENE
Cosmos 1959 Rocket 4.3 08:56:59 10° N 09:03:16 87° W 09:03:38 80° SSW
Cosmos 405 Rocket 4.3 09:04:42 34° E 09:04:42 34° E 09:08:05 10° NNE
Hubble Space Telescope 3.2 09:11:19 15° ESE 09:11:19 15° ESE 09:12:41 10° ESE
Cosmos 1125 Rocket 3.5 09:11:10 72° NNW 09:11:10 72° NNW 09:15:54 10° NNE
Cosmos 1805 3.9 09:19:56 52° NNE 09:19:56 52° NNE 09:23:02 10° N
Cosmos 2366 rocket 3.9 09:13:28 10° NNW 09:19:32 64° W 09:20:07 61° WSW
Milstar 3 Cent rocket 3.2 09:20:05 27° NW 09:21:49 36° N 09:27:16 10° ENE
Cosmos 1544 Rocket 4.5 09:23:37 36° NNW 09:23:37 36° NNW 09:26:25 10° N
IDEFIX/ARIANE 42P 2.9 09:17:36 10° NNE 09:22:43 61° ESE 09:24:37 37° SSE
GEOS 3 Rocket 4.4 09:19:22 10° N 09:23:55 35° NW 09:23:55 35° NW
H-II Stage 2 4.2 09:23:31 48° SSW 09:24:42 57° SSE 09:44:44 10° ENE
SL-4 R/B 3.6 09:27:11 24° SE 09:27:11 24° SE 09:28:49 10° SE
ADEOS II 4.1 09:26:24 10° NW 09:27:49 14° NW 09:27:49 14° NW
In-Cosmos 22 4.2 09:24:29 10° N 09:30:01 77° E 09:34:03 18° SSE
Okean 1-7 Rocket 4.0 09:25:59 10° NNW 09:29:32 50° NW 09:29:32 50° NW
Meteor 1-28 Rocket 3.3 09:32:05 67° ESE 09:32:23 72° ENE 09:36:09 10° N
Cosmos 1733 3.9 09:31:45 40° SE 09:32:39 50° E 09:36:23 10° NNE
Cosmos 1833 Rocket 4.3 09:34:02 19° WNW 09:34:02 19° WNW 09:37:23 10° NNW
CZ-2C R/B 4.1 09:30:38 10° NE 09:34:36 27° E 09:38:29 10° SSE
TSX-5 3.6 09:33:16 10° NNW 09:36:36 75° ENE 09:40:36 10° SSE
Cosmos 2218 Rocket 4.4 09:32:25 10° NNW 09:38:08 38° W 09:38:24 38° W
OAO 2 Rocket 3.2 09:37:41 57° W 09:38:41 78° NNW 09:43:46 10° ENE
Delta 2 Rocket 4.1 09:36:34 35° W 09:39:09 62° NNW 09:45:04 10° ENE
H-2A R/B 2.8 09:38:42 10° N 09:43:04 50° WNW 09:43:21 49° W
CZ-4C R/B 4.2 09:40:15 10° SSE 09:43:22 18° ESE 09:46:37 10° ENE
Cosmos 1697 Rocket 3.5 09:38:53 10° N 09:44:24 53° ENE 09:49:54 10° SSE
Palapa 6 Rocket 4.3 09:41:54 27° W 09:46:29 76° N 09:53:21 10° E
Cosmos 1821 Rocket 4.2 09:42:00 10° N 09:48:24 74° E 09:54:45 10° S
Meteor 2-5 Rocket 3.7 09:43:51 10° N 09:49:24 81° E 09:54:54 10° S
SL-27 R/B 4.2 09:51:54 19° NW 09:51:54 19° NW 09:53:24 10° NNW
MSX 3.9 09:45:26 10° NNE 09:51:12 78° ESE 09:56:15 14° S
Cosmos 1656 3.6 09:47:10 10° NNW 09:52:47 65° WSW 09:58:20 10° S
Cosmos 1980 Rocket 4.1 09:48:45 10° N 09:53:39 31° ENE 09:58:34 10° SE
Meteor 1-24 Rocket 4.1 09:51:24 10° N 09:56:40 61° E 10:01:52 10° SSE
deb Kosmos-1763 4.2 09:57:12 47° W 09:57:34 49° WNW 10:01:09 10° N
BREEZE-M DEB (TANK) 2.9 09:57:58 24° NW 09:59:33 77° SW 10:06:59 10° SE
CZ-3A R/B 1.1 09:59:31 36° N 09:59:39 37° N 10:03:04 10° ENE
Cosmos 1602 Rocket 4.0 09:58:34 10° N 10:03:00 65° E 10:07:26 10° SSE
BREEZE-M DEB (TANK) 2.6 10:02:20 28° WNW 10:03:44 62° SW 10:08:39 10° SE
Cosmos 2278 3.8 10:00:25 10° NNW 10:06:03 77° ENE 10:11:41 10° SSE
Cosmos 1606 Rocket 4.5 10:02:09 10° SSE 10:06:18 48° E 10:10:26 10° NNE
Cosmos 1758 3.3 10:03:44 15° S 10:06:56 83° E 10:10:54 10° N
Milstar 3 3.5 10:01:02 10° WNW 10:07:39 61° NNE 10:17:16 10° E
Cosmos 1626 Rocket 3.5 10:03:14 10° N 10:07:42 83° W 10:12:09 10° S
H-2A R/B 0.9 10:09:22 32° SE 10:09:22 32° SE 10:11:17 10° ENE
OAO 3 Rocket 4.4 10:07:33 18° SSW 10:10:21 32° SE 10:14:38 10° E
Cosmos 389 Rocket 2.5 10:08:35 10° N 10:12:12 85° E 10:15:48 10° S
Cosmos 2082 Rocket 4.2 10:13:54 10° WNW 10:14:46 11° WNW 10:16:09 10° NW
CZ-4B R/B 2.5 10:11:24 10° N 10:14:59 76° WNW 10:17:54 15° SSW
Cosmos 2228 3.3 10:22:00 10° S 10:26:16 71° E 10:30:31 10° N
GPS 2-14 Rocket1 2.8 10:26:50 18° W 10:29:20 47° SSW 10:33:00 10° ESE
Cosmos 1437 Rocket 3.6 10:25:21 10° N 10:29:22 57° E 10:33:23 10° SSE
Alouette 2 Rocket 4.3 10:24:24 10° SSW 10:31:55 75° W 10:36:44 10° N
GPS 2-17 Rocket1 3.5 10:30:14 16° WSW 10:33:19 39° SSW 10:37:24 10° SE
Cosmos 1184 Rocket 3.5 10:32:35 10° S 10:35:49 56° E 10:39:01 10° NNE
Meteor 1-4 Rocket 2.8 10:32:23 10° NNW 10:35:57 47° W 10:39:32 10° SSW
CZ-3B R/B 3.9 10:33:20 13° W 10:37:39 42° S 10:53:56 10° SE
NOSS 2-1 (E) 3.2 10:35:35 10° SSW 10:39:29 78° ESE 10:42:58 10° NNE
GPS 2-15 Rocket1 3.1 10:36:55 11° W 10:41:27 82° S 10:46:16 10° E
Cosmos 2369 4.4 10:36:54 10° NW 10:41:48 31° WSW 10:46:43 10° SSW
Meteor 1-31 Rocket 3.7 10:40:57 10° NNW 10:44:18 29° WNW 10:47:39 10° SW
Cosmos 2360 4.3 10:43:44 10° NNW 10:49:17 58° WSW 10:54:50 10° S
Cosmos 44 4.2 10:47:24 10° WNW 10:50:35 20° WSW 10:53:42 10° SSW
Hubble Space Telescope 0.8 10:46:39 10° WSW 10:50:46 84° SSE 10:54:54 10° ENE
Atlas Centaur 2 3.4 10:46:20 10° WNW 10:52:57 43° N 10:58:14 10° E
Cosmos 1934 Rocket 4.3 10:47:11 10° NNW 10:52:59 44° W 10:58:42 10° SSW
Okean O Rocket 1.8 10:49:03 10° NNE 10:53:23 76° ESE 10:57:42 10° S
SL-14 R/B 3.3 10:50:45 10° NNW 10:54:38 60° W 10:58:32 10° S
SJ-12 4.2 10:50:54 10° NNE 10:55:01 75° E 10:59:09 10° S
